Location: Saratoga Springs
(43.0831°N, 73.7850°W)
Time: 12:38:12
(UTC-04:00)

Transit 4A - Pass Details

Date: 17 April 2024
Orbit: 871 x 971 km, 66.8° (Epoch: 20 May)

Event Time Altitude Azimuth Distance (km) Brightness Sun altitude
Rises 21:15:44 0° 336° (NNW) 3,471 11.9 -16.5°
Reaches altitude 10° 21:18:57 10° 353° (N) 2,527 10.7 -17.0°
Maximum altitude 21:23:09 20° 39° (NE) 1,915 9.5 -17.7°
Enters shadow 21:25:59 15° 74° (ENE) 2,220 9.5 -18.1°
